Terminal Aerodrome Forecast
Issued by NWS Quad Cities IA IL

Home | Current Version | Previous Version | Text Only | Print | Product List | Glossary On
Versions: 1 2 3 4 5 6 7 8 9 10 11 12 13 14 15 16 17 18 19
000
FTUS43 KDVN 142338
TAFMLI
TAF
KMLI 142338Z 1500/1524 15010KT 6SM -RA BR SCT012 OVC060
     FM150200 18011KT 6SM BR VCSH SCT012 OVC060
     FM150500 26012KT 6SM BR VCSH SCT004 OVC010
     FM150900 29018G27KT 4SM BR OVC006
     FM151300 30020G30KT P6SM OVC010
     FM151800 31015G20KT P6SM BKN035=

USA.gov is the U.S. government's official web portal to all federal, state and local government web resources and services.